Location: Newark
(52.2583°N, 7.1190°W)
Time: 18:42:16
(UTC+00:00)

OTV 5 (USA 277) - Visible Passes

Search period start: 23 October 2019 00:00
Search period end: 02 November 2019 00:00
Orbit: 310 x 324 km, 54.5° (Epoch: 17 October)

Date Brightness Start Highest point End Pass type
(mag) Time Alt. Az. Time Alt. Az. Time Alt. Az.
29 Oct ? 18:52:40 10° S 18:53:10 13° S 18:53:10 13° S visible
30 Oct ? 19:06:22 10° SSW 19:07:33 20° SSW 19:07:33 20° SSW visible
31 Oct ? 17:48:24 10° SSE 17:49:29 12° SE 17:50:34 10° ESE visible
31 Oct ? 19:20:36 10° SW 19:21:50 23° SW 19:21:50 23° SW visible
01 Nov ? 18:01:32 10° SSW 18:03:46 23° SE 18:05:08 16° ESE visible
01 Nov ? 19:35:07 10° WSW 19:36:01 19° WSW 19:36:01 19° WSW visible
